Powrót do katalogu

FALCON 9 R/B

AktywnyHEO
NORAD 43464·ROCKET BODY·🇺🇸 United States

Wystrzelony May 11, 2018 z Cape Canaveral Space Force Station

Loading…

Następne Przeloty (najbliższe 24 godziny)

TLE

ŚwieżeSource: Space-Track

Epoka: Sep 14, 2026, 19:36 UTC

1 43464U 18044B   26257.81674873  .00003375  00000-0  14057-2 0  9991
2 43464  18.6931 194.1372 7097882 306.5430   7.3336  2.49951116 72166

Śledź FALCON 9 R/B w czasie rzeczywistym z AllMySat

Download on the App Store